Location: East Irvine
(33.6759°N, 117.7598°W)
Time: 23:28:33
(UTC+00:00)

OAO 3 Copernicus - Pass Details

Date: 15 November 2025
Orbit: 689 x 698 km, 35.0° (Epoch: 13 December)

Event Time Altitude Azimuth Distance (km) Brightness Sun altitude
Rises 02:51:02 0° 281° (W) 3,064 8.8 -25.5°
Reaches altitude 10° 02:53:26 10° 281° (W) 2,148 7.8 -26.0°
Enters shadow 02:58:05 76° 266° (W) 718 4.3 -27.0°
